Weather History for Juliana Airport, St. Martin

Change the Weather History Date:

Friday, October 5, 2012

  Actual Average Record
Temperature  
Mean Temperature 84 °F -  
Max Temperature 88 °F 86 °F 91 °F (1996)
Min Temperature 79 °F 76 °F 73 °F (2007)
Cooling Degree Days 18    
Growing Degree Days 34 (Base 50)    
Moisture  
Dew Point 71 °F    
Average Humidity 66    
Maximum Humidity 79    
Minimum Humidity 46    
Precipitation  
Precipitation 0.00 in 0.15 in - ()
Sea Level Pressure  
Sea Level Pressure 29.84 in    
Wind  
Wind Speed 6 mph ()    
Max Wind Speed 9 mph    
Max Gust Speed -    
Visibility 6.2 miles    
Events      
Averages and records for this station are not official NWS values.
T = Trace of Precipitation, MM = Missing Value Source: Averaged Metar Reports

Daily Weather History Graph

Daily Weather History Graph

Search for Another Location

Airport:

Trip Planner

Search our weather history database for the weather conditions in past years. The results will help you decide how hot, cold, wet, or windy it might be!

Date:

Astronomy

Oct. 05, 2012 Rise Set
Actual Time 6:03 AM AST 5:57 PM AST
Civil Twilight 5:41 AM AST 6:19 PM AST
Nautical Twilight 5:16 AM AST 6:44 PM AST
Astronomical Twilight 4:51 AM AST 7:09 PM AST
Moon 9:55 PM AST (10/5) 10:29 AM AST (10/5)
Length of Visible Light 12h 37m
Length of Day
11h 53m
Waning Gibbous, 74% of the Moon is Illuminated
Oct 5
Waning Gibbous
Oct 8
Last Quarter
Oct 15
New
Oct 21
First Quarter
Oct 29
Full

Hourly Weather History & Observations

Time (AST) Temp. Heat Index Dew Point Humidity Pressure Visibility Wind Dir Wind Speed Gust Speed Precip Events Conditions
12:00 AM 82.4 °F 88.2 °F 73.4 °F 74% 29.89 in 6.2 mi ENE 8.1 mph - N/A   Partly Cloudy
1:00 AM 82.4 °F 87.2 °F 71.6 °F 70% 29.86 in 6.2 mi ENE 8.1 mph - N/A   Partly Cloudy
2:00 AM 81 °F - 73 °F 71% 29.87 in 22 mi ENE 6.9 mph - -  
2:00 AM 80.6 °F 85.4 °F 73.4 °F 79% 29.86 in 6.2 mi ENE 6.9 mph - N/A   Scattered Clouds
3:00 AM 80.6 °F 84.6 °F 71.6 °F 74% 29.83 in 6.2 mi ESE 9.2 mph - N/A   Partly Cloudy
4:00 AM 80.6 °F 84.6 °F 71.6 °F 74% 29.83 in 6.2 mi NE 8.1 mph - N/A   Partly Cloudy
5:00 AM 81 °F - 72 °F 68% 29.86 in 22 mi ENE 5.8 mph - -   Scattered Clouds
5:00 AM 80.6 °F 84.6 °F 71.6 °F 74% 29.86 in 6.2 mi ENE 5.8 mph - N/A   Partly Cloudy
6:00 AM 80.6 °F 85.4 °F 73.4 °F 79% 29.86 in 6.2 mi ENE 4.6 mph - N/A   Partly Cloudy
7:00 AM 82.4 °F 88.2 °F 73.4 °F 74% 29.89 in 6.2 mi ENE 4.6 mph - N/A   Partly Cloudy
8:00 AM 84 °F - 73 °F 62% 29.89 in 37 mi East 6.9 mph - -   Partly Cloudy
8:00 AM 84.2 °F 90.9 °F 73.4 °F 70% 29.89 in 6.2 mi East 6.9 mph - N/A   Partly Cloudy
10:00 AM 87.8 °F 93.8 °F 71.6 °F 58% 29.89 in 6.2 mi NE 8.1 mph - N/A   Scattered Clouds
12:00 PM 87.8 °F 92.6 °F 69.8 °F 55% 29.86 in 6.2 mi NNE 9.2 mph - N/A   Partly Cloudy
1:00 PM 87.8 °F 92.6 °F 69.8 °F 55% 29.83 in 6.2 mi North 6.9 mph - N/A   Partly Cloudy
2:00 PM 87 °F - 69 °F 46% 29.83 in 40 mi NNE 8.1 mph - -   Scattered Clouds
2:00 PM 87.8 °F 92.6 °F 69.8 °F 55% 29.80 in 6.2 mi NNE 8.1 mph - N/A   Partly Cloudy
3:00 PM 86.0 °F 91.8 °F 71.6 °F 62% 29.80 in 6.2 mi NNE 6.9 mph - N/A   Partly Cloudy
4:00 PM 87.8 °F 92.6 °F 69.8 °F 55% 29.80 in 6.2 mi NNE 6.9 mph - N/A   Partly Cloudy
5:00 PM 86 °F - 70 °F 49% 29.81 in 44 mi NNE 5.8 mph - -   Scattered Clouds
5:00 PM 86.0 °F 90.4 °F 69.8 °F 58% 29.80 in 6.2 mi NNE 6.9 mph - N/A   Partly Cloudy
6:00 PM 84.2 °F 88.4 °F 69.8 °F 62% 29.80 in 6.2 mi East 8.1 mph - N/A   Scattered Clouds
7:00 PM 82.4 °F 87.2 °F 71.6 °F 70% 29.80 in 6.2 mi East 5.8 mph - N/A   Partly Cloudy
8:00 PM 82 °F - 71 °F 61% 29.83 in 40 mi East 4.6 mph - -   Scattered Clouds
8:00 PM 80.6 °F 84.6 °F 71.6 °F 74% 29.83 in 6.2 mi East 4.6 mph - N/A   Partly Cloudy
9:00 PM 80.6 °F 84.6 °F 71.6 °F 74% 29.83 in 6.2 mi Variable 3.5 mph - N/A   Partly Cloudy
10:00 PM 80.6 °F 84.6 °F 71.6 °F 74% 29.83 in 6.2 mi Variable 2.3 mph - N/A   Partly Cloudy
11:00 PM 81 °F - 71 °F 65% 29.84 in 40 mi 1.2 mph - -   Scattered Clouds
11:00 PM 80.6 °F 84.6 °F 71.6 °F 74% 29.83 in 6.2 mi Variable 1.2 mph - N/A   Partly Cloudy